Location: T�chigga el Be�da
(16.4766°N, 9.3887°W)
Time: 14:31:47
(UTC+00:00)

H-2A R/B - Pass Details

Date: 27 February 2020
Orbit: 266 x 32795 km, 28.4° (Epoch: 04 April)

Event Time Altitude Azimuth Distance (km) Brightness Sun altitude
Rises 12:19:33 0° 233° (SW) 19,101 9.2 64.0°
Reaches altitude 10° 12:54:14 10° 228° (SW) 24,318 10.0 65.1°
Drops below altitude 10° 16:51:37 10° 241° (WSW) 36,773 12.2 25.4°
Maximum altitude 20:39:03 42° 334° (NNW) 2,209 4.4 -28.3°
Enters shadow 20:41:35 31° 18° (NNE) 1,890 3.8 -28.9°
